Weather History for Juliana Airport, St. Martin

Change the Weather History Date:

Monday, December 2, 2013

  Actual Average Record
Temperature  
Mean Temperature 80 °F -  
Max Temperature 83 °F 82 °F 87 °F (1999)
Min Temperature 78 °F 73 °F 69 °F (2005)
Cooling Degree Days 16    
Growing Degree Days 30 (Base 50)    
Moisture  
Dew Point 72 °F    
Average Humidity 73    
Maximum Humidity 89    
Minimum Humidity 62    
Precipitation  
Precipitation 0.04 in 0.11 in - ()
Sea Level Pressure  
Sea Level Pressure 29.91 in    
Wind  
Wind Speed 8 mph ()    
Max Wind Speed 13 mph    
Max Gust Speed -    
Visibility 6.6 miles    
Events Rain    
Averages and records for this station are not official NWS values.
T = Trace of Precipitation, MM = Missing Value Source: Averaged Metar Reports

Daily Weather History Graph

Daily Weather History Graph

Search for Another Location

Airport:

Trip Planner

Search our weather history database for the weather conditions in past years. The results will help you decide how hot, cold, wet, or windy it might be!

Date:

Astronomy

Dec. 02, 2013 Rise Set
Actual Time 6:28 AM AST 5:35 PM AST
Civil Twilight 6:04 AM AST 5:59 PM AST
Nautical Twilight 5:37 AM AST 6:25 PM AST
Astronomical Twilight 5:11 AM AST 6:52 PM AST
Moon 5:54 AM AST (12/2) 5:29 PM AST (12/2)
Length of Visible Light 11h 54m
Length of Day
11h 07m
Waning Crescent, 0% of the Moon is Illuminated
Dec 2
Waning Crescent
Dec 2
New
Dec 9
First Quarter
Dec 17
Full
Dec 25
Last Quarter

Hourly Weather History & Observations

Time (AST) Temp. Heat Index Dew Point Humidity Pressure Visibility Wind Dir Wind Speed Gust Speed Precip Events Conditions
12:00 AM 78.8 °F - 71.6 °F 78% 29.92 in - ESE 4.6 mph - N/A   Clear
1:00 AM 80.6 °F 84.6 °F 71.6 °F 74% 29.89 in 6.2 mi SE 9.2 mph - N/A   Partly Cloudy
2:00 AM 80 °F - 71 °F 67% 29.89 in 25 mi SE 10.4 mph - -  
2:00 AM 80.6 °F 84.6 °F 71.6 °F 74% 29.89 in 6.2 mi SE 10.4 mph - N/A   Partly Cloudy
3:00 AM 80.6 °F 84.6 °F 71.6 °F 74% 29.89 in 6.2 mi SE 6.9 mph - N/A   Partly Cloudy
4:00 AM 80.6 °F 84.6 °F 71.6 °F 74% 29.89 in 6.2 mi SE 6.9 mph - N/A   Partly Cloudy
5:00 AM 80 °F - 71 °F 66% 29.89 in 25 mi SE 8.1 mph - -   Scattered Clouds
5:00 AM 80.6 °F 84.6 °F 71.6 °F 74% 29.89 in 6.2 mi SE 8.1 mph - N/A   Partly Cloudy
6:00 AM 80.6 °F 83.9 °F 69.8 °F 70% 29.89 in 6.2 mi SE 9.2 mph - N/A   Partly Cloudy
7:00 AM 80.6 °F 84.6 °F 71.6 °F 74% 29.92 in 6.2 mi ESE 4.6 mph - N/A   Partly Cloudy
8:00 AM 82 °F - 72 °F 63% 29.95 in 44 mi SE 6.9 mph - -   Scattered Clouds
8:00 AM 82.4 °F 87.2 °F 71.6 °F 70% 29.95 in 6.2 mi SE 6.9 mph - N/A   Partly Cloudy
9:00 AM 82.4 °F 87.2 °F 71.6 °F 70% 29.95 in 6.2 mi SE 8.1 mph - N/A   Partly Cloudy
10:00 AM 82.4 °F 87.2 °F 71.6 °F 70% 29.95 in 6.2 mi SE 10.4 mph - N/A   Partly Cloudy
11:00 AM 83 °F - 72 °F 62% 29.95 in 47 mi SE 10.4 mph - -   Scattered Clouds
11:00 AM 82.4 °F 87.2 °F 71.6 °F 70% 29.95 in 6.2 mi SE 10.4 mph - N/A   Partly Cloudy
12:00 PM 82.4 °F 88.2 °F 73.4 °F 74% 29.92 in 6.2 mi SSE 11.5 mph - N/A   Partly Cloudy
1:00 PM 82.4 °F 88.2 °F 73.4 °F 74% 29.89 in 6.2 mi SE 12.7 mph - N/A   Partly Cloudy
2:00 PM 83 °F - 73 °F 64% 29.88 in 44 mi SE 10.4 mph - -   Scattered Clouds
2:00 PM 84.2 °F 90.9 °F 73.4 °F 70% 29.86 in 6.2 mi ESE 10.4 mph - N/A   Partly Cloudy
3:00 PM 84.2 °F 89.6 °F 71.6 °F 66% 29.86 in 6.2 mi SE 9.2 mph - N/A   Partly Cloudy
4:00 PM 82.4 °F 88.2 °F 73.4 °F 74% 29.86 in 6.2 mi SE 10.4 mph - N/A   Partly Cloudy
5:00 PM 82 °F - 73 °F 67% 29.91 in 44 mi SE 9.2 mph - -   Scattered Clouds
5:00 PM 82.4 °F 88.2 °F 73.4 °F 74% 29.89 in 6.2 mi SE 9.2 mph - N/A   Partly Cloudy
6:00 PM 80.6 °F 85.4 °F 73.4 °F 79% 29.89 in 6.2 mi ESE 9.2 mph - N/A   Partly Cloudy
7:00 PM 80.6 °F 85.4 °F 73.4 °F 79% 29.92 in 6.2 mi SE 10.4 mph - N/A   Scattered Clouds
8:00 PM 81 °F - 74 °F 74% 29.94 in 16 mi SE 10.4 mph - - Rain Light Rain Showers
8:00 PM 80.6 °F 85.4 °F 73.4 °F 79% 29.92 in 6.2 mi SE 10.4 mph - N/A Rain Light Rain Showers
9:00 PM 80.6 °F 85.4 °F 73.4 °F 79% 29.95 in 6.2 mi ESE 8.1 mph - N/A   Mostly Cloudy
10:00 PM 78.8 °F - 75.2 °F 89% 29.95 in 6.2 mi SE 8.1 mph - N/A Rain Light Rain Showers
11:00 PM 79 °F - 73 °F 76% 29.98 in 6 mi East 8.1 mph - - Rain Light Rain Showers
11:00 PM - - 73.4 °F N/A% 29.98 in 6.2 mi East 8.1 mph - N/A   Mostly Cloudy